カタログに戻る

NOAA 16 DEB

運用中SSO
NORAD 41067·DEBRIS·🇺🇸 United States

打ち上げ Sep 21, 2000 から Vandenberg Space Force Base

Loading…

次のパス (今後24時間)

TLE

最新Source: Space-Track

元期: Sep 14, 2026, 19:40 UTC

1 41067U 00055AA  26257.81987540  .00000714  00000-0  36809-3 0  9993
2 41067  98.5141 287.6524 0004630  39.6530 320.4984 14.18172776557518

AllMySatでNOAA 16 DEBをリアルタイム追跡

Download on the App Store